When you browse on this site, cookies collect data to enhance your experience and personalize the content and advertising you see.
Visit our Privacy Policy to learn more. By continuing to use the site, you agree to this use of cookies and data.
  • en Suisse
  • Liste des pays
  • À 7 jours
  • Température de l'eau
  • Carte météo
  • Widgets météo
  • user-avatar
    Se connecter

    Météo par heure à Worcester

    Ce jour, 8 Décembre, Dimanche

    Heure Température Précipitation Vent Pression Humidité
    00:00 +8°C° 0 mm 9 m/s 746 mmHg 86%
    01:00 +10°C° 0.3 mm 9 m/s 745 mmHg 86%
    02:00 +11°C° 0.3 mm 10 m/s 744 mmHg 85%
    03:00 +12°C° 0.3 mm 10 m/s 743 mmHg 85%
    04:00 +10°C° 0 mm 8 m/s 744 mmHg 84%
    05:00 +8°C° 0 mm 7 m/s 744 mmHg 83%
    06:00 +7°C° 0 mm 5 m/s 744 mmHg 87%
    07:00 +5°C° 0 mm 6 m/s 744 mmHg 84%
    08:00 +5°C° 0 mm 6 m/s 744 mmHg 81%
    09:00 +5°C° 0 mm 7 m/s 745 mmHg 79%
    10:00 +6°C° 0 mm 8 m/s 744 mmHg 74%
    11:00 +6°C° 0 mm 9 m/s 744 mmHg 70%
    12:00 +7°C° 0 mm 9 m/s 744 mmHg 66%
    13:00 +6°C° 0 mm 9 m/s 744 mmHg 66%
    14:00 +6°C° 0 mm 9 m/s 743 mmHg 67%
    15:00 +5°C° 0 mm 8 m/s 742 mmHg 67%
    16:00 +5°C° 0 mm 8 m/s 742 mmHg 69%
    17:00 +4°C° 0 mm 8 m/s 742 mmHg 71%
    18:00 +4°C° 0 mm 8 m/s 741 mmHg 73%
    19:00 +4°C° 0.1 mm 8 m/s 740 mmHg 76%
    20:00 +3°C° 0.1 mm 9 m/s 739 mmHg 80%
    21:00 +3°C° 0.1 mm 9 m/s 738 mmHg 83%
    22:00 +3°C° 0.3 mm 9 m/s 738 mmHg 82%
    23:00 +5°C° 0.3 mm 8 m/s 738 mmHg 80%

    Demain, 9 Décembre, Lundi

    Heure Température Précipitation Vent Pression Humidité
    00:00 +5°C° 0.3 mm 8 m/s 738 mmHg 79%
    01:00 +5°C° 0.3 mm 9 m/s 738 mmHg 78%
    02:00 +4°C° 0.3 mm 11 m/s 739 mmHg 77%
    03:00 +4°C° 0.3 mm 12 m/s 740 mmHg 75%
    04:00 +4°C° 0.1 mm 13 m/s 742 mmHg 75%
    05:00 +4°C° 0.1 mm 13 m/s 743 mmHg 75%
    06:00 +4°C° 0.1 mm 14 m/s 745 mmHg 75%
    07:00 +4°C° 0 mm 13 m/s 747 mmHg 74%
    08:00 +4°C° 0 mm 11 m/s 749 mmHg 72%
    09:00 +5°C° 0 mm 10 m/s 751 mmHg 70%
    10:00 +5°C° 0 mm 9 m/s 753 mmHg 68%
    11:00 +5°C° 0 mm 8 m/s 755 mmHg 66%
    12:00 +6°C° 0 mm 8 m/s 757 mmHg 64%
    13:00 +5°C° 0 mm 7 m/s 758 mmHg 65%
    14:00 +6°C° 0 mm 5 m/s 759 mmHg 66%
    15:00 +5°C° 0 mm 4 m/s 760 mmHg 67%
    16:00 +4°C° 0 mm 4 m/s 760 mmHg 71%
    17:00 +3°C° 0 mm 3 m/s 761 mmHg 75%
    18:00 +3°C° 0 mm 3 m/s 762 mmHg 79%
    19:00 +3°C° 0 mm 2 m/s 763 mmHg 80%
    20:00 +3°C° 0 mm 2 m/s 763 mmHg 82%
    21:00 +3°C° 0 mm 2 m/s 763 mmHg 83%
    22:00 +3°C° 0 mm 2 m/s 763 mmHg 85%
    23:00 +3°C° 0 mm 2 m/s 763 mmHg 86%

    Après-demain, 10 Décembre, Mardi

    Heure Température Précipitation Vent Pression Humidité
    00:00 +1°C° 0 mm 3 m/s 763 mmHg 88%
    01:00 +2°C° 0 mm 3 m/s 762 mmHg 86%
    02:00 +1°C° 0 mm 4 m/s 762 mmHg 85%
    03:00 +1°C° 0 mm 5 m/s 761 mmHg 84%
    04:00 +2°C° 0 mm 5 m/s 760 mmHg 85%
    05:00 +3°C° 0 mm 6 m/s 759 mmHg 86%
    06:00 +3°C° 0 mm 6 m/s 758 mmHg 86%
    07:00 +4°C° 0.1 mm 7 m/s 757 mmHg 87%
    08:00 +5°C° 0.1 mm 9 m/s 756 mmHg 87%
    09:00 +6°C° 0.1 mm 10 m/s 755 mmHg 87%
    10:00 +7°C° 0.5 mm 10 m/s 753 mmHg 88%
    11:00 +7°C° 0.5 mm 11 m/s 752 mmHg 89%
    12:00 +8°C° 0.5 mm 11 m/s 751 mmHg 90%
    13:00 +8°C° 0.5 mm 11 m/s 749 mmHg 89%
    14:00 +9°C° 0.5 mm 11 m/s 748 mmHg 88%
    15:00 +11°C° 0.5 mm 11 m/s 746 mmHg 88%
    16:00 +9°C° 1.4 mm 11 m/s 747 mmHg 88%
    17:00 +8°C° 1.4 mm 11 m/s 747 mmHg 87%
    18:00 +7°C° 1.4 mm 10 m/s 747 mmHg 87%
    19:00 +6°C° 0.6 mm 9 m/s 748 mmHg 85%
    20:00 +5°C° 0.6 mm 7 m/s 749 mmHg 82%
    21:00 +5°C° 0.6 mm 5 m/s 749 mmHg 80%
    22:00 +3°C° 0 mm 5 m/s 750 mmHg 81%
    23:00 +4°C° 0 mm 4 m/s 750 mmHg 82%

    11 Décembre, Mercredi

    Heure Température Précipitation Vent Pression Humidité
    00:00 +4°C° 0 mm 4 m/s 751 mmHg 83%
    01:00 +3°C° 0 mm 4 m/s 751 mmHg 83%
    02:00 +3°C° 0 mm 4 m/s 751 mmHg 83%
    03:00 +3°C° 0 mm 4 m/s 751 mmHg 83%
    04:00 +1°C° 0 mm 4 m/s 751 mmHg 84%
    05:00 +1°C° 0 mm 4 m/s 750 mmHg 85%
    06:00 +1°C° 0 mm 4 m/s 750 mmHg 85%
    07:00 +3°C° 0.1 mm 4 m/s 750 mmHg 86%
    08:00 +2°C° 0.1 mm 5 m/s 749 mmHg 88%
    09:00 +3°C° 0.1 mm 5 m/s 749 mmHg 89%
    10:00 +3°C° 0.2 mm 5 m/s 748 mmHg 87%
    11:00 +5°C° 0.2 mm 5 m/s 747 mmHg 85%
    12:00 +5°C° 0.2 mm 5 m/s 747 mmHg 83%
    13:00 +5°C° 0.6 mm 4 m/s 746 mmHg 85%
    14:00 +4°C° 0.6 mm 3 m/s 745 mmHg 87%
    15:00 +5°C° 0.6 mm 2 m/s 745 mmHg 89%
    16:00 +3°C° 0.5 mm 3 m/s 745 mmHg 89%
    17:00 +3°C° 0.5 mm 4 m/s 746 mmHg 89%
    18:00 +3°C° 0.5 mm 4 m/s 746 mmHg 89%
    19:00 +1°C° 0 mm 4 m/s 747 mmHg 87%
    20:00 +1°C° 0 mm 4 m/s 748 mmHg 86%
    21:00 0°C° 0 mm 4 m/s 748 mmHg 85%
    22:00 0°C° 0 mm 4 m/s 748 mmHg 85%
    23:00 0°C° 0 mm 4 m/s 749 mmHg 85%

    12 Décembre, Jeudi

    Heure Température Précipitation Vent Pression Humidité
    00:00 0°C° 0 mm 4 m/s 749 mmHg 85%
    01:00 0°C° 0 mm 4 m/s 749 mmHg 85%
    02:00 0°C° 0 mm 4 m/s 749 mmHg 85%
    03:00 0°C° 0 mm 4 m/s 748 mmHg 85%
    04:00 0°C° 0 mm 4 m/s 748 mmHg 85%
    05:00 0°C° 0 mm 4 m/s 747 mmHg 84%
    06:00 0°C° 0 mm 4 m/s 747 mmHg 84%
    07:00 +1°C° 0 mm 5 m/s 745 mmHg 85%
    08:00 +2°C° 0 mm 6 m/s 744 mmHg 87%
    09:00 +2°C° 0 mm 7 m/s 743 mmHg 88%
    10:00 +2°C° 0.3 mm 8 m/s 741 mmHg 89%
    11:00 +4°C° 0.3 mm 8 m/s 739 mmHg 90%
    12:00 +5°C° 0.3 mm 9 m/s 736 mmHg 91%
    13:00 +6°C° 1.6 mm 9 m/s 734 mmHg 90%
    14:00 +6°C° 1.6 mm 8 m/s 733 mmHg 89%
    15:00 +7°C° 1.6 mm 8 m/s 731 mmHg 89%
    16:00 +7°C° 0.4 mm 8 m/s 730 mmHg 89%
    17:00 +6°C° 0.4 mm 7 m/s 729 mmHg 89%
    18:00 +6°C° 0.4 mm 7 m/s 728 mmHg 89%
    19:00 +5°C° 0.4 mm 8 m/s 728 mmHg 84%
    20:00 +5°C° 0.4 mm 9 m/s 728 mmHg 79%
    21:00 +3°C° 0.4 mm 10 m/s 729 mmHg 74%
    22:00 +2°C° 0 mm 9 m/s 729 mmHg 75%
    23:00 +2°C° 0 mm 9 m/s 729 mmHg 76%

    13 Décembre, Vendredi

    Heure Température Précipitation Vent Pression Humidité
    00:00 +1°C° 0 mm 8 m/s 729 mmHg 77%
    01:00 +1°C° 0 mm 8 m/s 729 mmHg 76%
    02:00 +1°C° 0 mm 8 m/s 730 mmHg 74%
    03:00 0°C° 0 mm 8 m/s 730 mmHg 73%
    04:00 0°C° 0 mm 8 m/s 730 mmHg 75%
    05:00 +1°C° 0 mm 9 m/s 731 mmHg 77%
    06:00 +1°C° 0 mm 9 m/s 731 mmHg 79%
    07:00 +1°C° 0 mm 10 m/s 732 mmHg 77%
    08:00 +1°C° 0 mm 10 m/s 733 mmHg 76%
    09:00 +2°C° 0 mm 10 m/s 733 mmHg 74%
    10:00 +2°C° 0 mm 10 m/s 734 mmHg 72%
    11:00 +3°C° 0 mm 10 m/s 735 mmHg 71%
    12:00 +3°C° 0 mm 11 m/s 735 mmHg 69%
    13:00 +3°C° 0 mm 10 m/s 736 mmHg 69%
    14:00 +3°C° 0 mm 9 m/s 737 mmHg 68%
    15:00 +2°C° 0 mm 9 m/s 737 mmHg 68%
    16:00 +3°C° 0 mm 7 m/s 738 mmHg 73%
    17:00 +2°C° 0 mm 6 m/s 738 mmHg 77%
    18:00 +1°C° 0 mm 5 m/s 738 mmHg 81%
    19:00 +1°C° 0 mm 5 m/s 738 mmHg 82%
    20:00 +2°C° 0 mm 5 m/s 738 mmHg 83%
    21:00 +2°C° 0 mm 5 m/s 738 mmHg 84%
    22:00 +2°C° 0.3 mm 5 m/s 738 mmHg 87%
    23:00 +3°C° 0.3 mm 4 m/s 738 mmHg 90%
    Voir plus